#timestamp,LO_Frequency,Hit,StdDev 
1457193615.7,286047001.2,N
1457193635.5,286046999.1,N
1457193655.4,286046994.9,N
1457193675.2,286046995.9,N
1457193695.0,286046999.5,N
1457193695.9,286046999.5,N
1457193715.8,286047000.5,N
1457193735.6,286047000.7,N
1457193755.4,286046997.0,N
1457193775.3,286046998.6,N
1457193795.1,286046997.9,N
1457193796.0,286046997.9,N
1457193815.8,286046993.3,N
1457193835.7,286046994.5,N
1457193855.5,286046995.7,N
1457193875.3,286046998.0,N
1457193895.2,286046996.4,N
1457193915.9,286046996.4,N
1457193935.7,286046997.9,N
1457193955.5,286046994.2,N
1457193975.4,286046992.6,Y
1457193995.2,286046994.0,P
1457194015.1,286046995.9,N
1457194016.0,286046995.9,N
1457194035.8,286046994.7,Y
1457194055.6,286046996.9,P
1457194075.5,286046998.9,N
1457194095.3,286046999.1,N
1457194115.1,286046997.6,N
1457194135.9,286046999.1,N
1457194155.7,286046998.2,N
1457194175.5,286047002.5,N
1457194195.3,286046998.5,N
1457194215.2,286046999.8,N
1457194235.0,286047002.7,N
1457194235.9,286047002.7,N
1457194255.7,286047002.0,N
1457194275.6,286047001.7,N
1457194295.4,286047002.0,N
1457194315.2,286047000.6,N
1457194335.1,286046996.9,N
1457194336.0,286046996.9,N
1457194355.8,286047000.8,N
1457194375.6,286046996.6,N
1457194395.5,286046997.7,N
1457194415.3,286046997.6,N
1457194435.1,286046996.1,N
1457194455.9,286046993.3,Y
1457194475.7,286046993.3,P
1457194495.5,286046993.0,N
1457194515.4,286046992.3,N
1457194535.2,286046995.6,N
1457194555.0,286046997.9,N
1457194555.9,286046997.9,N
1457194575.8,286046993.6,N
1457194595.6,286046994.0,N
1457194615.4,286046995.7,N
1457194635.2,286046996.2,N
1457194655.1,286046996.2,N
1457194656.0,286046996.2,N
1457194675.8,286046992.3,Y
1457194695.6,286046996.5,P
1457194715.5,286046994.9,P
1457194735.3,286046993.5,P
1457194755.1,286046995.6,Y
1457194775.9,286047002.2,P
1457194795.7,286047000.6,N
1457194815.5,286046999.0,N
1457194835.4,286046998.4,N
1457194855.2,286046999.8,N
1457194875.0,286046999.8,N
1457194875.9,286046999.8,N
1457194895.8,286047000.7,N
1457194915.6,286047002.4,N
1457194935.4,286046999.9,N
1457194955.3,286047002.6,N
1457194975.1,286047004.3,N
1457194976.0,286047004.3,N
1457194995.8,286047004.2,N
1457195015.7,286047001.4,N
1457195035.5,286047002.5,N
1457195055.3,286047005.0,N
1457195075.1,286047004.5,N
1457195095.9,286047011.9,Y
1457195115.7,286047012.5,P
1457195135.6,286047014.5,N
1457195155.4,286047016.6,N
1457195175.2,286047016.5,N
1457195195.1,286047018.8,Y
1457195196.0,286047018.8,P
1457195215.8,286047009.0,N
1457195235.6,286047008.6,N
1457195255.5,286047011.1,N
1457195275.3,286047007.3,N
1457195295.1,286047007.4,N
1457195315.8,286047009.0,N
1457195335.7,286047008.2,N
1457195355.5,286047008.4,N
1457195375.3,286047006.8,N
1457195395.2,286047009.7,N
1457195415.9,286047011.7,Y
1457195435.7,286047004.3,P
1457195455.6,286047001.6,N
1457195475.4,286047003.6,N
1457195495.2,286047004.1,N
1457195515.1,286047003.5,N
1457195516.0,286047003.5,N
1457195535.8,286047000.1,N
1457195555.6,286047003.6,N
1457195575.5,286047001.4,N
1457195595.3,286047001.8,N
1457195615.1,286047004.2,N
1457195635.8,286047003.1,N
1457195655.7,286047005.8,N
1457195675.5,286047003.4,N
1457195695.3,286046999.3,N
1457195715.2,286046992.2,Y
1457195735.0,286046988.5,P
1457195735.9,286046988.5,N
1457195755.7,286046990.7,N
1457195775.6,286046989.8,N
1457195795.4,286046991.6,N
1457195815.2,286046990.9,N
1457195835.1,286046989.3,N
1457195836.0,286046989.3,N
1457195855.8,286046989.7,N
1457195875.6,286046987.4,Y
1457195895.5,286046999.5,P
1457195915.3,286046996.8,N
1457195935.1,286046996.8,N
1457195955.9,286046995.6,N
1457195975.7,286046996.4,N
1457195995.5,286046991.8,Y
1457196015.4,286046996.3,P
1457196035.2,286046995.8,P
1457196055.0,286046996.2,P
1457196055.9,286046996.2,Y
1457196075.8,286046999.6,P
1457196095.6,286046995.3,N
1457196115.4,286046998.6,N
1457196135.3,286047000.1,N
1457196155.1,286047002.3,N
1457196156.0,286047002.3,N
1457196175.8,286046999.3,N
1457196195.7,286046995.8,N
1457196215.5,286046997.6,N
1457196235.3,286046997.6,N
1457196255.2,286046998.0,N
1457196275.9,286046997.4,N
1457196295.7,286046998.0,N
1457196315.5,286046995.0,N
1457196335.4,286046995.1,N
1457196355.2,286046995.4,N
1457196375.0,286046997.4,N
1457196375.9,286046997.4,N
1457196395.8,286046993.7,N
1457196415.6,286046993.0,Y
1457196435.4,286046995.9,P
1457196455.3,286046996.0,P
1457196475.1,286046993.3,P
1457196495.9,286046995.4,Y
1457196515.7,286046999.7,P
1457196535.5,286046998.2,N
1457196555.3,286047002.1,N
1457196575.2,286047006.2,N
1457196595.0,286047008.1,N
1457196595.9,286047008.1,N
1457196615.7,286047011.1,N
1457196635.6,286047012.7,N
1457196655.4,286047016.7,N
1457196675.2,286047017.3,N
1457196695.1,286047021.4,Y
1457196696.0,286047021.4,P
1457196715.8,286047016.3,N
1457196735.6,286047018.4,P
1457196755.5,286047018.4,Y
1457196775.3,286047004.4,P
1457196795.1,286047002.9,N
1457196815.9,286047003.3,N
1457196835.7,286047003.2,N
1457196855.5,286047003.9,N
1457196875.4,286047006.0,N
1457196895.2,286047003.7,N
1457196915.0,286047006.0,N
1457196915.9,286047006.0,N
1457196935.8,286047001.6,N
1457196955.6,286047004.1,N
1457196975.4,286047002.2,N
1457196995.2,286047002.7,N
1457197015.1,286047001.1,N
1457197016.0,286047001.1,N
1457197035.8,286047000.7,N
1457197055.6,286047000.8,N
1457197075.5,286046998.8,N
1457197095.3,286046995.0,N
1457197115.1,286046994.2,N
1457197135.9,286046992.4,N
1457197155.7,286046993.2,N
1457197175.5,286046992.4,N
1457197195.4,286046992.2,N
